星链-32096 (STARLINK-32096 )

导读 | 豆包AI

STARLINK-32096是美国太空探索技术公司星链互联网卫星星座中的一颗卫星,于2024年5月8日发射入轨,属于星链项目扩容组网的组成部分。星链旨在通过近地轨道卫星群,为全球提供高速互联网接入服务,该卫星的入轨进一步扩充了星座的覆盖范围与服务能力。

基本信息
目录编号:
59698
目录名称:
STARLINK-32096
国际标识:
2024-086S
轨道中心:
EARTH
卫星名称:
星链-32096
卫星全名:
星链-32096 (STARLINK-32096 )
卫星状态:
在轨 (已飞行723 天)
发射日期:
2024-05-08 UTC
国别 :
美国 (US)
星等 :
--
轨道信息
数据来源 国际轨道数据
星历时间: 2026-04-30T18:01:29+0800
17小时前
查看轨道信息
半长轴: 6861.193km
偏心率: 0.0001244
轨道倾角: 43.002°
近地点辐角 262.788°
升交点赤经 127.727°
平近点角 97.283°
近地点: 482.202km
远地点: 483.91km
周期: 94.267分钟
每日圈数: 15.275778
详细信息
固有亮度:
5
最大亮度:
1.5
卫星平台:
Starlink v2.0 mini
覆盖范围:
全球
运营商:
太空探索技术公司
运营商所在国:
美国
制造商(研发单位):
太空探索技术公司
制造商所在国:
美国
使用方式:
暂无
卫星简介
星链(Starlink)计划是由太空探索技术公司(SpaceX)提出的一个巨型低轨卫星互联网星座项目,计划在2019年至2024年间在太空搭建由约1.2万颗卫星组成的“星链”网络,其中1584颗将部署在地球上空550千米处的近地轨道,并从2020年开始工作。该卫星仍在工作。
2D轨道图
3D轨道图
轨道高度分析图
轨道倾角分析图
轨道综合分析图
查看轨道综合分析图